Regional Weather Roundup
Issued by NWS

Home | Current Version | Previous Version | Text Only | Print | Product List | Glossary Off
Versions: 1 2 3 4 5 6 7 8 9 10 11 12 13 14 15 16 17 18 19 20 21 22 23 24 25 26 27 28 29 30 31 32 33 34 35 36 37 38 39 40 41 42 43 44 45 46 47 48 49 50

000
ASUS43 KLMK 232202
RWRKY
KENTUCKY REGIONAL WEATHER ROUNDUP
NATIONAL WEATHER SERVICE LOUISVILLE KY
600 PM EDT TUE SEP 23 2014

NOTE "FAIR" INDICATES FEW OR NO CLOUDS BELOW 12,000 FEET
WITH NO SIGNIFICANT WEATHER AND/OR OBSTRUCTIONS TO VISIBILITY.

KYZ001>023-026-027-061>063-070>075-232300-
WESTERN AND SOUTH CENTRAL KENTUCKY

CITY           SKY/WX    TMP DP  RH WIND       PRES   REMARKS
PADUCAH        SUNNY     76  49  38 VRB6      30.20F
HENDERSON      SUNNY     73  43  33 NE9       30.23S
OWENSBORO      SUNNY     74  45  35 E8        30.23F
HOPKINSVILLE   SUNNY     76  44  32 NE9       30.20F
BOWLING GREEN  SUNNY     75  43  31 NE10      30.22F
GLASGOW        NOT AVBL
$$

KYZ024-025-028>034-038-045-046-053-232300-
NORTH CENTRAL KENTUCKY

CITY           SKY/WX    TMP DP  RH WIND       PRES   REMARKS
LOUISVILLE/SDF MOSUNNY   74  45  35 NE9       30.26R
LOUISVILLE/LOU SUNNY     73  43  33 NE12      30.26S
FORT KNOX      SUNNY     71  46  40 NE7       30.24S
$$

KYZ035>037-039>044-047>052-055>060-089>105-232300-
NORTHEAST KENTUCKY

CITY           SKY/WX    TMP DP  RH WIND       PRES   REMARKS
LEXINGTON      SUNNY     72  44  36 NE10      30.26F
COVINGTON      SUNNY     73  43  33 E7        30.28S
FRANKFORT      SUNNY     71  43  36 E8        30.26S
$$

KYZ054-064>069-076>088-106>120-232300-
SOUTHEAST KENTUCKY

CITY           SKY/WX    TMP DP  RH WIND       PRES   REMARKS
JACKSON        SUNNY     68  49  50 CALM      30.28S
LONDON         SUNNY     72  49  44 NE6       30.26R
SOMERSET       SUNNY     72  43  35 CALM      30.25S
MIDDLESBORO    SUNNY     74  52  46 SW3       30.24S
MONTICELLO     CLEAR     74  49  41 E7        30.26R
$$




USA.gov is the U.S. government's official web portal to all federal, state and local government web resources and services.